"Sample Date","Sample Time","Sample Value","Units","Flow Rate","Laser Status","Micron Size 0","Counts/Channel 0","Micron Size 1","Counts/Channel 1","Micron Size 2","Counts/Channel 2","Micron Size 3","Counts/Channel 3","Micron Size 4","Counts/Channel 4","Micron Size 5","Counts/Channel 5","Micron Size 6","Counts/Channel 6","Micron Size 7","Counts/Channel 7","Micron Size 8","Counts/Channel 8","Micron Size 9","Counts/Channel 9","Micron Size 10","Counts/Channel 10","Micron Size 11","Counts/Channel 11","Micron Size 12","Counts/Channel 12","Micron Size 13","Counts/Channel 13","Micron Size 14","Counts/Channel 14","Micron Size 15","Counts/Channel 15","Micron Size 16","Counts/Channel 16","Micron Size 17","Counts/Channel 17","Micron Size 18","Counts/Channel 18","Micron Size 19","Counts/Channel 19","Micron Size 20","Counts/Channel 20","Micron Size 21","Counts/Channel 21","Micron Size 22","Counts/Channel 22","Micron Size 23","Counts/Channel 23","Micron Size 24","Counts/Channel 24","Micron Size 25","Counts/Channel 25","Micron Size 26","Counts/Channel 26","Micron Size 27","Counts/Channel 27","Micron Size 28","Counts/Channel 28","Micron Size 29","Counts/Channel 29","Micron Size 30","Counts/Channel 30","Micron Size 31","Counts/Channel 31"
"05/03/07","11:00:04",31319.000,"cc",28352.955,1,0.100,24729.000,0.200,5787.000,0.300,761.000,0.500,37.000,1.000,5.000,5.000,0
"05/03/07","11:00:10",31283.000,"cc",28295.850,1,0.100,24619.000,0.200,5816.000,0.300,791.000,0.500,49.000,1.000,8.000,5.000,0
"05/03/07","11:00:16",31416.000,"cc",28317.813,1,0.100,24824.000,0.200,5723.000,0.300,813.000,0.500,45.000,1.000,11.000,5.000,0
"05/03/07","11:00:22",31400.000,"cc",28276.303,1,0.100,24826.000,0.200,5805.000,0.300,705.000,0.500,59.000,1.000,5.000,5.000,0
"05/03/07","11:00:28",31517.000,"cc",28293.867,1,0.100,24934.000,0.200,5763.000,0.300,763.000,0.500,48.000,1.000,9.000,5.000,0
"05/03/07","11:00:34",31425.000,"cc",28359.285,1,0.100,24778.000,0.200,5840.000,0.300,735.000,0.500,59.000,1.000,13.000,5.000,0
"05/03/07","11:00:40",31051.000,"cc",28353.756,1,0.100,24483.000,0.200,5766.000,0.300,743.000,0.500,55.000,1.000,4.000,5.000,0
"05/03/07","11:00:46",31503.000,"cc",28300.924,1,0.100,24951.000,0.200,5754.000,0.300,743.000,0.500,50.000,1.000,5.000,5.000,0
"05/03/07","11:00:52",31013.000,"cc",28278.768,1,0.100,24445.000,0.200,5762.000,0.300,751.000,0.500,47.000,1.000,8.000,5.000,0
"05/03/07","11:00:58",31414.000,"cc",28317.793,1,0.100,24801.000,0.200,5768.000,0.300,783.000,0.500,53.000,1.000,9.000,5.000,0
"05/03/07","11:01:04",31039.000,"cc",28255.836,1,0.100,24466.000,0.200,5731.000,0.300,774.000,0.500,59.000,1.000,9.000,5.000,0
"05/03/07","11:01:10",30879.000,"cc",28359.941,1,0.100,24470.000,0.200,5590.000,0.300,769.000,0.500,41.000,1.000,9.000,5.000,0
"05/03/07","11:01:16",30863.000,"cc",28364.492,1,0.100,24323.000,0.200,5740.000,0.300,732.000,0.500,56.000,1.000,12.000,5.000,0
"05/03/07","11:01:22",30849.000,"cc",28331.885,1,0.100,24201.000,0.200,5795.000,0.300,792.000,0.500,50.000,1.000,11.000,5.000,0
"05/03/07","11:01:28",31075.000,"cc",28309.908,1,0.100,24491.000,0.200,5748.000,0.300,766.000,0.500,59.000,1.000,11.000,5.000,0
"05/03/07","11:01:34",30711.000,"cc",28283.982,1,0.100,24316.000,0.200,5603.000,0.300,733.000,0.500,50.000,1.000,9.000,5.000,0
"05/03/07","11:01:40",30681.000,"cc",28313.621,1,0.100,24275.000,0.200,5709.000,0.300,632.000,0.500,53.000,1.000,12.000,5.000,0
"05/03/07","11:01:46",30962.000,"cc",28307.182,1,0.100,24241.000,0.200,5888.000,0.300,772.000,0.500,53.000,1.000,8.000,5.000,0
"05/03/07","11:01:52",30573.000,"cc",28297.623,1,0.100,24176.000,0.200,5597.000,0.300,735.000,0.500,52.000,1.000,13.000,5.000,0
"05/03/07","11:01:58",30417.000,"cc",28305.701,1,0.100,23920.000,0.200,5667.000,0.300,764.000,0.500,55.000,1.000,11.000,5.000,0
"05/03/07","11:02:04",30088.000,"cc",28334.746,1,0.100,23701.000,0.200,5600.000,0.300,739.000,0.500,35.000,1.000,13.000,5.000,0
"05/03/07","11:02:10",30406.000,"cc",28323.504,1,0.100,24097.000,0.200,5550.000,0.300,704.000,0.500,48.000,1.000,7.000,5.000,0
"05/03/07","11:02:16",30153.000,"cc",28308.510,1,0.100,23818.000,0.200,5545.000,0.300,721.000,0.500,52.000,1.000,17.000,5.000,0
"05/03/07","11:02:22",30252.000,"cc",28348.231,1,0.100,23956.000,0.200,5541.000,0.300,695.000,0.500,53.000,1.000,7.000,5.000,0
"05/03/07","11:02:28",30011.000,"cc",28330.147,1,0.100,23568.000,0.200,5694.000,0.300,682.000,0.500,59.000,1.000,8.000,5.000,0
"05/03/07","11:02:34",29942.000,"cc",28296.982,1,0.100,23553.000,0.200,5536.000,0.300,792.000,0.500,52.000,1.000,9.000,5.000,0
"05/03/07","11:02:40",29837.000,"cc",28299.051,1,0.100,23506.000,0.200,5518.000,0.300,752.000,0.500,50.000,1.000,11.000,5.000,0
"05/03/07","11:02:46",29948.000,"cc",28326.762,1,0.100,23482.000,0.200,5678.000,0.300,733.000,0.500,46.000,1.000,9.000,5.000,0
"05/03/07","11:02:52",29394.000,"cc",28315.555,1,0.100,23095.000,0.200,5518.000,0.300,716.000,0.500,54.000,1.000,11.000,5.000,0
"05/03/07","11:02:58",29339.000,"cc",28315.543,1,0.100,23002.000,0.200,5570.000,0.300,692.000,0.500,65.000,1.000,10.000,5.000,0
"05/03/07","11:03:04",29523.000,"cc",28320.238,1,0.100,23193.000,0.200,5562.000,0.300,696.000,0.500,62.000,1.000,10.000,5.000,0
"05/03/07","11:03:10",28862.000,"cc",28391.025,1,0.100,22724.000,0.200,5379.000,0.300,696.000,0.500,54.000,1.000,9.000,5.000,0
"05/03/07","11:03:16",28920.000,"cc",28264.682,1,0.100,22931.000,0.200,5276.000,0.300,649.000,0.500,60.000,1.000,4.000,5.000,0
"05/03/07","11:03:22",28746.000,"cc",28315.272,1,0.100,22697.000,0.200,5305.000,0.300,679.000,0.500,59.000,1.000,6.000,5.000,0
"05/03/07","11:03:28",28907.000,"cc",28265.805,1,0.100,22735.000,0.200,5426.000,0.300,684.000,0.500,57.000,1.000,5.000,5.000,0
"05/03/07","11:03:34",28784.000,"cc",28308.414,1,0.100,22686.000,0.200,5328.000,0.300,693.000,0.500,63.000,1.000,14.000,5.000,0
"05/03/07","11:03:40",28661.000,"cc",28340.340,1,0.100,22487.000,0.200,5435.000,0.300,684.000,0.500,37.000,1.000,18.000,5.000,0
"05/03/07","11:03:46",28768.000,"cc",28359.668,1,0.100,22712.000,0.200,5294.000,0.300,698.000,0.500,52.000,1.000,12.000,5.000,0
"05/03/07","11:03:52",28326.000,"cc",28258.541,1,0.100,22285.000,0.200,5305.000,0.300,672.000,0.500,53.000,1.000,11.000,5.000,0
"05/03/07","11:03:58",28425.000,"cc",28333.990,1,0.100,22421.000,0.200,5296.000,0.300,654.000,0.500,52.000,1.000,2.000,5.000,0
"05/03/07","11:04:04",28101.000,"cc",28293.709,1,0.100,22097.000,0.200,5235.000,0.300,696.000,0.500,59.000,1.000,14.000,5.000,0
"05/03/07","11:04:10",28359.000,"cc",28320.018,1,0.100,22256.000,0.200,5348.000,0.300,708.000,0.500,44.000,1.000,3.000,5.000,0
"05/03/07","11:04:16",28120.000,"cc",28322.281,1,0.100,22160.000,0.200,5266.000,0.300,646.000,0.500,36.000,1.000,12.000,5.000,0
"05/03/07","11:04:22",28018.000,"cc",28332.213,1,0.100,22153.000,0.200,5173.000,0.300,645.000,0.500,40.000,1.000,7.000,5.000,0
"05/03/07","11:04:28",27915.000,"cc",28305.746,1,0.100,22003.000,0.200,5213.000,0.300,650.000,0.500,42.000,1.000,7.000,5.000,0
"05/03/07","11:04:34",27950.000,"cc",28301.840,1,0.100,22086.000,0.200,5227.000,0.300,588.000,0.500,45.000,1.000,4.000,5.000,0
"05/03/07","11:04:40",28088.000,"cc",28328.434,1,0.100,22193.000,0.200,5169.000,0.300,679.000,0.500,42.000,1.000,5.000,5.000,0
"05/03/07","11:04:46",28153.000,"cc",28287.758,1,0.100,22308.000,0.200,5139.000,0.300,657.000,0.500,45.000,1.000,4.000,5.000,0
"05/03/07","11:04:52",28095.000,"cc",28324.633,1,0.100,22263.000,0.200,5137.000,0.300,639.000,0.500,51.000,1.000,5.000,5.000,0
"05/03/07","11:04:58",27636.000,"cc",28306.688,1,0.100,21780.000,0.200,5143.000,0.300,666.000,0.500,42.000,1.000,5.000,5.000,0
"05/03/07","11:05:04",27599.000,"cc",28337.559,1,0.100,21733.000,0.200,5163.000,0.300,657.000,0.500,38.000,1.000,8.000,5.000,0
"05/03/07","11:05:10",27447.000,"cc",28325.967,1,0.100,21640.000,0.200,5147.000,0.300,608.000,0.500,45.000,1.000,7.000,5.000,0
"05/03/07","11:05:16",27433.000,"cc",28295.572,1,0.100,21646.000,0.200,5077.000,0.300,671.000,0.500,32.000,1.000,7.000,5.000,0
"05/03/07","11:05:22",27505.000,"cc",28328.516,1,0.100,21722.000,0.200,5057.000,0.300,662.000,0.500,60.000,1.000,4.000,5.000,0
"05/03/07","11:05:28",27400.000,"cc",28317.416,1,0.100,21665.000,0.200,5045.000,0.300,642.000,0.500,38.000,1.000,10.000,5.000,0
"05/03/07","11:05:34",27370.000,"cc",28260.535,1,0.100,21538.000,0.200,5149.000,0.300,638.000,0.500,40.000,1.000,5.000,5.000,0
"05/03/07","11:05:40",27138.000,"cc",28345.219,1,0.100,21544.000,0.200,4904.000,0.300,641.000,0.500,44.000,1.000,5.000,5.000,0
"05/03/07","11:05:46",27442.000,"cc",28324.598,1,0.100,21722.000,0.200,5027.000,0.300,645.000,0.500,45.000,1.000,3.000,5.000,0
"05/03/07","11:05:52",27044.000,"cc",28327.615,1,0.100,21434.000,0.200,4902.000,0.300,658.000,0.500,44.000,1.000,6.000,5.000,0
"05/03/07","11:05:58",27152.000,"cc",28289.330,1,0.100,21480.000,0.200,4954.000,0.300,683.000,0.500,31.000,1.000,4.000,5.000,0
"05/03/07","11:06:04",27217.000,"cc",28276.346,1,0.100,21455.000,0.200,5076.000,0.300,642.000,0.500,36.000,1.000,8.000,5.000,0
"05/03/07","11:06:10",27086.000,"cc",28333.734,1,0.100,21389.000,0.200,4962.000,0.300,680.000,0.500,48.000,1.000,7.000,5.000,0
"05/03/07","11:06:16",26850.000,"cc",28327.008,1,0.100,21296.000,0.200,4905.000,0.300,604.000,0.500,36.000,1.000,9.000,5.000,0
"05/03/07","11:06:22",26940.000,"cc",28357.773,1,0.100,21305.000,0.200,4909.000,0.300,677.000,0.500,44.000,1.000,5.000,5.000,0
"05/03/07","11:06:28",26528.000,"cc",28316.217,1,0.100,20841.000,0.200,5007.000,0.300,638.000,0.500,37.000,1.000,5.000,5.000,0
"05/03/07","11:06:34",26505.000,"cc",28327.783,1,0.100,20808.000,0.200,5001.000,0.300,653.000,0.500,32.000,1.000,11.000,5.000,0
"05/03/07","11:06:40",26381.000,"cc",28334.340,1,0.100,20831.000,0.200,4848.000,0.300,645.000,0.500,53.000,1.000,4.000,5.000,0
"05/03/07","11:06:46",26374.000,"cc",28307.813,1,0.100,20795.000,0.200,4870.000,0.300,655.000,0.500,47.000,1.000,7.000,5.000,0
"05/03/07","11:06:52",26158.000,"cc",28290.893,1,0.100,20574.000,0.200,4888.000,0.300,647.000,0.500,38.000,1.000,11.000,5.000,0
"05/03/07","11:06:58",26163.000,"cc",28323.979,1,0.100,20574.000,0.200,4913.000,0.300,621.000,0.500,46.000,1.000,9.000,5.000,0
"05/03/07","11:07:04",26311.000,"cc",28319.606,1,0.100,20732.000,0.200,4903.000,0.300,619.000,0.500,50.000,1.000,7.000,5.000,0
"05/03/07","11:07:10",26385.000,"cc",28389.668,1,0.100,20675.000,0.200,4985.000,0.300,668.000,0.500,51.000,1.000,6.000,5.000,0
"05/03/07","11:07:16",26049.000,"cc",28268.551,1,0.100,20486.000,0.200,4840.000,0.300,659.000,0.500,59.000,1.000,5.000,5.000,0
"05/03/07","11:07:22",25911.000,"cc",28333.604,1,0.100,20473.000,0.200,4801.000,0.300,585.000,0.500,44.000,1.000,8.000,5.000,0
"05/03/07","11:07:28",26125.000,"cc",28310.244,1,0.100,20586.000,0.200,4859.000,0.300,630.000,0.500,45.000,1.000,5.000,5.000,0
"05/03/07","11:07:34",26153.000,"cc",28284.100,1,0.100,20610.000,0.200,4868.000,0.300,628.000,0.500,37.000,1.000,10.000,5.000,0
"05/03/07","11:07:40",26006.000,"cc",28303.836,1,0.100,20543.000,0.200,4788.000,0.300,627.000,0.500,44.000,1.000,4.000,5.000,0
"05/03/07","11:07:46",25861.000,"cc",28305.678,1,0.100,20326.000,0.200,4900.000,0.300,580.000,0.500,48.000,1.000,7.000,5.000,0
"05/03/07","11:07:52",26046.000,"cc",28309.883,1,0.100,20648.000,0.200,4688.000,0.300,660.000,0.500,41.000,1.000,9.000,5.000,0
"05/03/07","11:07:58",25605.000,"cc",28346.387,1,0.100,20266.000,0.200,4696.000,0.300,604.000,0.500,36.000,1.000,3.000,5.000,0
"05/03/07","11:08:04",25846.000,"cc",28291.365,1,0.100,20257.000,0.200,4915.000,0.300,635.000,0.500,34.000,1.000,5.000,5.000,0
"05/03/07","11:08:10",25711.000,"cc",28424.252,1,0.100,20321.000,0.200,4703.000,0.300,648.000,0.500,35.000,1.000,4.000,5.000,0
"05/03/07","11:08:16",25706.000,"cc",28303.856,1,0.100,20152.000,0.200,4921.000,0.300,578.000,0.500,47.000,1.000,8.000,5.000,0
"05/03/07","11:08:22",25451.000,"cc",28324.266,1,0.100,20061.000,0.200,4762.000,0.300,589.000,0.500,34.000,1.000,5.000,5.000,0
"05/03/07","11:08:28",25548.000,"cc",28298.053,1,0.100,20149.000,0.200,4728.000,0.300,628.000,0.500,40.000,1.000,3.000,5.000,0
"05/03/07","11:08:34",25537.000,"cc",28303.678,1,0.100,20231.000,0.200,4670.000,0.300,591.000,0.500,42.000,1.000,3.000,5.000,0
"05/03/07","11:08:40",25441.000,"cc",28300.379,1,0.100,19913.000,0.200,4865.000,0.300,616.000,0.500,37.000,1.000,10.000,5.000,0
"05/03/07","11:08:46",25196.000,"cc",28326.988,1,0.100,19904.000,0.200,4621.000,0.300,626.000,0.500,44.000,1.000,1.000,5.000,0
"05/03/07","11:08:52",25622.000,"cc",28323.699,1,0.100,20173.000,0.200,4770.000,0.300,633.000,0.500,38.000,1.000,8.000,5.000,0
"05/03/07","11:08:58",25564.000,"cc",28261.992,1,0.100,20032.000,0.200,4841.000,0.300,628.000,0.500,54.000,1.000,9.000,5.000,0
"05/03/07","11:09:04",25152.000,"cc",28348.914,1,0.100,19839.000,0.200,4673.000,0.300,584.000,0.500,48.000,1.000,8.000,5.000,0
"05/03/07","11:09:10",25204.000,"cc",28318.981,1,0.100,19804.000,0.200,4752.000,0.300,598.000,0.500,43.000,1.000,7.000,5.000,0
"05/03/07","11:09:16",25173.000,"cc",28318.961,1,0.100,19759.000,0.200,4723.000,0.300,642.000,0.500,41.000,1.000,8.000,5.000,0
"05/03/07","11:09:22",24900.000,"cc",28356.744,1,0.100,19711.000,0.200,4547.000,0.300,590.000,0.500,44.000,1.000,8.000,5.000,0
"05/03/07","11:09:28",25239.000,"cc",28364.881,1,0.100,19920.000,0.200,4654.000,0.300,604.000,0.500,53.000,1.000,8.000,5.000,0
"05/03/07","11:09:34",24780.000,"cc",28279.316,1,0.100,19510.000,0.200,4634.000,0.300,581.000,0.500,44.000,1.000,11.000,5.000,0
"05/03/07","11:09:40",25122.000,"cc",28310.867,1,0.100,19842.000,0.200,4669.000,0.300,568.000,0.500,37.000,1.000,6.000,5.000,0
"05/03/07","11:09:46",25151.000,"cc",28304.686,1,0.100,19849.000,0.200,4619.000,0.300,621.000,0.500,50.000,1.000,12.000,5.000,0
"05/03/07","11:09:52",25008.000,"cc",28326.498,1,0.100,19679.000,0.200,4702.000,0.300,581.000,0.500,39.000,1.000,7.000,5.000,0
"05/03/07","11:09:58",24946.000,"cc",28297.535,1,0.100,19636.000,0.200,4611.000,0.300,647.000,0.500,44.000,1.000,8.000,5.000,0
"05/03/07","11:10:04",24920.000,"cc",28362.246,1,0.100,19628.000,0.200,4615.000,0.300,614.000,0.500,55.000,1.000,8.000,5.000,0
"05/03/07","11:10:10",25117.000,"cc",28300.699,1,0.100,19707.000,0.200,4728.000,0.300,626.000,0.500,51.000,1.000,5.000,5.000,0
"05/03/07","11:10:16",25377.000,"cc",28309.635,1,0.100,20032.000,0.200,4671.000,0.300,630.000,0.500,38.000,1.000,6.000,5.000,0
"05/03/07","11:10:22",25369.000,"cc",28339.902,1,0.100,20075.000,0.200,4611.000,0.300,638.000,0.500,42.000,1.000,3.000,5.000,0
"05/03/07","11:10:28",25481.000,"cc",28272.127,1,0.100,20020.000,0.200,4775.000,0.300,632.000,0.500,47.000,1.000,7.000,5.000,0
"05/03/07","11:10:34",25859.000,"cc",28340.350,1,0.100,20416.000,0.200,4772.000,0.300,623.000,0.500,44.000,1.000,4.000,5.000,0
"05/03/07","11:10:40",25824.000,"cc",28294.535,1,0.100,20431.000,0.200,4679.000,0.300,666.000,0.500,43.000,1.000,5.000,5.000,0
"05/03/07","11:10:46",25552.000,"cc",28256.748,1,0.100,20198.000,0.200,4689.000,0.300,610.000,0.500,48.000,1.000,7.000,5.000,0
"05/03/07","11:10:52",25484.000,"cc",28385.141,1,0.100,20075.000,0.200,4757.000,0.300,595.000,0.500,48.000,1.000,9.000,5.000,0
"05/03/07","11:10:58",25961.000,"cc",28313.182,1,0.100,20436.000,0.200,4823.000,0.300,665.000,0.500,34.000,1.000,3.000,5.000,0
"05/03/07","11:11:04",25893.000,"cc",28345.590,1,0.100,20362.000,0.200,4843.000,0.300,631.000,0.500,52.000,1.000,5.000,5.000,0
"05/03/07","11:11:10",25916.000,"cc",28269.164,1,0.100,20401.000,0.200,4903.000,0.300,571.000,0.500,40.000,1.000,1.000,5.000,0
"05/03/07","11:11:16",25816.000,"cc",28312.596,1,0.100,20360.000,0.200,4779.000,0.300,635.000,0.500,36.000,1.000,6.000,5.000,0
"05/03/07","11:11:22",26247.000,"cc",28294.047,1,0.100,20763.000,0.200,4834.000,0.300,612.000,0.500,30.000,1.000,8.000,5.000,0
"05/03/07","11:11:28",26342.000,"cc",28341.902,1,0.100,20740.000,0.200,4915.000,0.300,641.000,0.500,42.000,1.000,4.000,5.000,0
"05/03/07","11:11:34",26084.000,"cc",28325.340,1,0.100,20622.000,0.200,4733.000,0.300,676.000,0.500,48.000,1.000,5.000,5.000,0
"05/03/07","11:11:40",26170.000,"cc",28361.930,1,0.100,20690.000,0.200,4772.000,0.300,654.000,0.500,43.000,1.000,11.000,5.000,0
"05/03/07","11:11:46",26408.000,"cc",28303.232,1,0.100,20889.000,0.200,4853.000,0.300,618.000,0.500,42.000,1.000,6.000,5.000,0
"05/03/07","11:11:52",26127.000,"cc",28310.262,1,0.100,20504.000,0.200,4938.000,0.300,638.000,0.500,44.000,1.000,3.000,5.000,0
"05/03/07","11:11:58",26336.000,"cc",28324.648,1,0.100,20856.000,0.200,4788.000,0.300,631.000,0.500,55.000,1.000,6.000,5.000,0
"05/03/07","11:12:04",26479.000,"cc",28325.125,1,0.100,20862.000,0.200,4909.000,0.300,650.000,0.500,48.000,1.000,10.000,5.000,0
"05/03/07","11:12:10",26231.000,"cc",28368.631,1,0.100,20706.000,0.200,4834.000,0.300,624.000,0.500,53.000,1.000,14.000,5.000,0
"05/03/07","11:12:16",26702.000,"cc",28298.998,1,0.100,21028.000,0.200,4973.000,0.300,646.000,0.500,47.000,1.000,8.000,5.000,0
"05/03/07","11:12:22",26233.000,"cc",28256.637,1,0.100,20783.000,0.200,4759.000,0.300,644.000,0.500,38.000,1.000,9.000,5.000,0
"05/03/07","11:12:28",26697.000,"cc",28337.772,1,0.100,20928.000,0.200,5069.000,0.300,633.000,0.500,54.000,1.000,13.000,5.000,0
"05/03/07","11:12:34",26645.000,"cc",28284.566,1,0.100,20987.000,0.200,4943.000,0.300,648.000,0.500,54.000,1.000,13.000,5.000,0
"05/03/07","11:12:40",26769.000,"cc",28344.906,1,0.100,21094.000,0.200,4961.000,0.300,651.000,0.500,50.000,1.000,13.000,5.000,0
"05/03/07","11:12:46",26809.000,"cc",28325.594,1,0.100,21090.000,0.200,5016.000,0.300,647.000,0.500,44.000,1.000,12.000,5.000,0
"05/03/07","11:12:52",26801.000,"cc",28302.012,1,0.100,21083.000,0.200,5031.000,0.300,631.000,0.500,49.000,1.000,7.000,5.000,0
"05/03/07","11:12:58",26627.000,"cc",28330.574,1,0.100,20921.000,0.200,4978.000,0.300,679.000,0.500,43.000,1.000,6.000,5.000,0
"05/03/07","11:13:04",26597.000,"cc",28302.740,1,0.100,20972.000,0.200,4977.000,0.300,593.000,0.500,46.000,1.000,9.000,5.000,0
"05/03/07","11:13:10",26596.000,"cc",28313.563,1,0.100,20870.000,0.200,5014.000,0.300,638.000,0.500,58.000,1.000,16.000,5.000,0
"05/03/07","11:13:16",26861.000,"cc",28346.356,1,0.100,21290.000,0.200,4893.000,0.300,617.000,0.500,54.000,1.000,7.000,5.000,0
"05/03/07","11:13:22",26980.000,"cc",28317.387,1,0.100,21194.000,0.200,5132.000,0.300,604.000,0.500,40.000,1.000,10.000,5.000,0
"05/03/07","11:13:28",27093.000,"cc",28295.174,1,0.100,21396.000,0.200,4999.000,0.300,642.000,0.500,43.000,1.000,13.000,5.000,0
"05/03/07","11:13:34",26789.000,"cc",28288.133,1,0.100,21046.000,0.200,5012.000,0.300,671.000,0.500,49.000,1.000,11.000,5.000,0
"05/03/07","11:13:40",26753.000,"cc",28307.770,1,0.100,21158.000,0.200,4897.000,0.300,650.000,0.500,40.000,1.000,8.000,5.000,0
"05/03/07","11:13:46",26736.000,"cc",28405.268,1,0.100,21067.000,0.200,4960.000,0.300,652.000,0.500,48.000,1.000,9.000,5.000,0
"05/03/07","11:13:52",26439.000,"cc",28263.061,1,0.100,20788.000,0.200,4994.000,0.300,592.000,0.500,54.000,1.000,11.000,5.000,0
"05/03/07","11:13:58",26455.000,"cc",28354.750,1,0.100,20859.000,0.200,4906.000,0.300,605.000,0.500,71.000,1.000,14.000,5.000,0
"05/03/07","11:14:04",26451.000,"cc",28349.658,1,0.100,20837.000,0.200,4893.000,0.300,662.000,0.500,51.000,1.000,8.000,5.000,0
"05/03/07","11:14:10",26124.000,"cc",28315.879,1,0.100,20649.000,0.200,4790.000,0.300,630.000,0.500,45.000,1.000,10.000,5.000,0
"05/03/07","11:14:16",26399.000,"cc",28249.373,1,0.100,20732.000,0.200,4936.000,0.300,669.000,0.500,52.000,1.000,10.000,5.000,0
"05/03/07","11:14:22",26498.000,"cc",28304.639,1,0.100,20848.000,0.200,4889.000,0.300,690.000,0.500,64.000,1.000,7.000,5.000,0
"05/03/07","11:14:28",26484.000,"cc",28321.606,1,0.100,20930.000,0.200,4886.000,0.300,600.000,0.500,58.000,1.000,10.000,5.000,0
"05/03/07","11:14:34",26247.000,"cc",28321.494,1,0.100,20806.000,0.200,4763.000,0.300,622.000,0.500,48.000,1.000,8.000,5.000,0
"05/03/07","11:14:40",26434.000,"cc",28287.311,1,0.100,20939.000,0.200,4829.000,0.300,598.000,0.500,60.000,1.000,8.000,5.000,0
"05/03/07","11:14:46",26155.000,"cc",28388.022,1,0.100,20626.000,0.200,4834.000,0.300,619.000,0.500,57.000,1.000,19.000,5.000,0
"05/03/07","11:14:52",26076.000,"cc",28304.727,1,0.100,20529.000,0.200,4878.000,0.300,606.000,0.500,50.000,1.000,13.000,5.000,0
"05/03/07","11:14:58",26195.000,"cc",28276.690,1,0.100,20701.000,0.200,4795.000,0.300,638.000,0.500,49.000,1.000,12.000,5.000,0
"05/03/07","11:15:04",25961.000,"cc",28317.529,1,0.100,20397.000,0.200,4801.000,0.300,679.000,0.500,70.000,1.000,14.000,5.000,0
"05/03/07","11:15:10",25767.000,"cc",28328.461,1,0.100,20321.000,0.200,4773.000,0.300,596.000,0.500,61.000,1.000,16.000,5.000,0
"05/03/07","11:15:16",26105.000,"cc",28307.045,1,0.100,20620.000,0.200,4792.000,0.300,628.000,0.500,43.000,1.000,22.000,5.000,0
"05/03/07","11:15:22",26046.000,"cc",28363.842,1,0.100,20690.000,0.200,4657.000,0.300,622.000,0.500,63.000,1.000,14.000,5.000,0
"05/03/07","11:15:28",25780.000,"cc",28301.080,1,0.100,20290.000,0.200,4813.000,0.300,611.000,0.500,58.000,1.000,8.000,5.000,0
"05/03/07","11:15:34",26242.000,"cc",28331.082,1,0.100,20696.000,0.200,4874.000,0.300,594.000,0.500,68.000,1.000,10.000,5.000,0
"05/03/07","11:15:40",26376.000,"cc",28343.912,1,0.100,20778.000,0.200,4905.000,0.300,643.000,0.500,40.000,1.000,10.000,5.000,0
"05/03/07","11:15:46",26194.000,"cc",28275.356,1,0.100,20641.000,0.200,4858.000,0.300,634.000,0.500,50.000,1.000,11.000,5.000,0
"05/03/07","11:15:52",26196.000,"cc",28319.178,1,0.100,20651.000,0.200,4843.000,0.300,646.000,0.500,50.000,1.000,6.000,5.000,0
"05/03/07","11:15:58",26006.000,"cc",28295.650,1,0.100,20349.000,0.200,4923.000,0.300,674.000,0.500,53.000,1.000,7.000,5.000,0
"05/03/07","11:16:04",26107.000,"cc",28347.041,1,0.100,20690.000,0.200,4731.000,0.300,628.000,0.500,47.000,1.000,11.000,5.000,0
"05/03/07","11:16:10",26150.000,"cc",28304.613,1,0.100,20587.000,0.200,4890.000,0.300,600.000,0.500,58.000,1.000,15.000,5.000,0
"05/03/07","11:16:16",26272.000,"cc",28269.008,1,0.100,20739.000,0.200,4798.000,0.300,656.000,0.500,58.000,1.000,21.000,5.000,0
"05/03/07","11:16:22",26570.000,"cc",28369.043,1,0.100,20875.000,0.200,4989.000,0.300,631.000,0.500,59.000,1.000,16.000,5.000,0
"05/03/07","11:16:28",26103.000,"cc",28320.117,1,0.100,20478.000,0.200,4859.000,0.300,694.000,0.500,59.000,1.000,13.000,5.000,0
"05/03/07","11:16:34",26227.000,"cc",28306.250,1,0.100,20835.000,0.200,4731.000,0.300,588.000,0.500,63.000,1.000,10.000,5.000,0
"05/03/07","11:16:40",26213.000,"cc",28320.662,1,0.100,20555.000,0.200,4937.000,0.300,647.000,0.500,65.000,1.000,9.000,5.000,0
"05/03/07","11:16:46",26575.000,"cc",28328.777,1,0.100,20929.000,0.200,4895.000,0.300,681.000,0.500,58.000,1.000,12.000,5.000,0
"05/03/07","11:16:52",26611.000,"cc",28227.070,1,0.100,21018.000,0.200,4915.000,0.300,613.000,0.500,58.000,1.000,7.000,5.000,0
"05/03/07","11:16:58",26827.000,"cc",28375.609,1,0.100,21205.000,0.200,4897.000,0.300,649.000,0.500,66.000,1.000,10.000,5.000,0
"05/03/07","11:17:04",26895.000,"cc",28366.455,1,0.100,21302.000,0.200,4892.000,0.300,636.000,0.500,53.000,1.000,12.000,5.000,0
"05/03/07","11:17:10",26838.000,"cc",28341.422,1,0.100,21094.000,0.200,4955.000,0.300,709.000,0.500,68.000,1.000,12.000,5.000,0
"05/03/07","11:17:16",26941.000,"cc",28289.736,1,0.100,21141.000,0.200,5082.000,0.300,649.000,0.500,63.000,1.000,6.000,5.000,0
"05/03/07","11:17:22",27028.000,"cc",28274.926,1,0.100,21340.000,0.200,4943.000,0.300,682.000,0.500,47.000,1.000,16.000,5.000,0
"05/03/07","11:17:28",27291.000,"cc",28329.785,1,0.100,21634.000,0.200,4920.000,0.300,667.000,0.500,61.000,1.000,9.000,5.000,0
"05/03/07","11:17:34",26739.000,"cc",28303.992,1,0.100,21119.000,0.200,4863.000,0.300,672.000,0.500,78.000,1.000,7.000,5.000,0
"05/03/07","11:17:40",26686.000,"cc",28357.723,1,0.100,21039.000,0.200,4896.000,0.300,677.000,0.500,57.000,1.000,17.000,5.000,0